Gwinn, MI

11:34 AM EDT on March 24, 2017 (GMT -0400)
Sawyer International

Weather History for KSAW - November, 2013

Change the Weather History Date:

Saturday, November 9, 2013

  Actual Average (KESC) Record (KESC)
Temperature  
Mean Temperature 36 °F -  
Max Temperature 38 °F 43 °F 71 °F (1999)
Min Temperature 34 °F 32 °F 10 °F (2003)
Degree Days  
Heating Degree Days 28    
Moisture  
Dew Point 34 °F    
Average Humidity 90    
Maximum Humidity 100    
Minimum Humidity 81    
Precipitation  
Precipitation 0.14 in - - ()
Sea Level Pressure  
Sea Level Pressure 29.69 in    
Wind  
Wind Speed 14 mph (SSW)    
Max Wind Speed 21 mph    
Max Gust Speed 29 mph    
Visibility 8 miles    
Events Rain    
Averages and records for this station are not official NWS values.
T = Trace of Precipitation, MM = Missing Value Source: NWS Daily Summary

Daily Weather History Graph

Daily Weather History Graph

Search for Another Location

Airport or City:

Trip Planner

Search our weather history database for the weather conditions in past years. The results will help you decide how hot, cold, wet, or windy it might be!

Date:

Astronomy

Nov. 09, 2013 Rise Set
Actual Time 7:42 AM EST 5:23 PM EST
Civil Twilight 7:10 AM EST 5:55 PM EST
Nautical Twilight 6:34 AM EST 6:31 PM EST
Astronomical Twilight 5:59 AM EST 7:06 PM EST
Moon 1:15 PM EST (11/9) 11:58 PM EST (11/9)
Length of Visible Light 10h 44m
Length of Day
9h 40m
Waxing Crescent, 44% of the Moon is Illuminated
Nov 9
Waxing Crescent
Nov 10
First Quarter
Nov 17
Full
Nov 25
Last Quarter
Dec 2
New

Hourly Weather History & Observations

Time (EST) Temp. Windchill Dew Point Humidity Pressure Visibility Wind Dir Wind Speed Gust Speed Precip Events Conditions
12:16 AM 34.7 °F 26.4 °F 32.0 °F 90% 29.85 in 10.0 mi SE 11.5 mph - N/A   Overcast
12:36 AM 34.9 °F 27.1 °F 32.0 °F 89% 29.84 in 10.0 mi SSE 10.4 mph - N/A   Overcast
12:56 AM 36.1 °F 27.3 °F 33.1 °F 89% 29.82 in 10.0 mi SSE 13.8 mph 19.6 mph N/A Rain Light Rain
1:16 AM 36.7 °F 27.6 °F 34.2 °F 91% 29.80 in 5.0 mi SSE 15.0 mph 21.9 mph N/A Rain Light Rain
1:37 AM 36.9 °F 27.8 °F 35.1 °F 93% 29.79 in 5.0 mi SSE 15.0 mph 19.6 mph N/A Rain Rain
1:56 AM 37.4 °F 28.2 °F 35.8 °F 94% 29.77 in 4.0 mi South 16.1 mph 21.9 mph 0.01 in Rain Light Rain
2:17 AM 38.3 °F 28.1 °F 36.5 °F 93% 29.75 in 3.0 mi South 20.7 mph 27.6 mph 0.01 in Rain Rain
2:36 AM 38.3 °F 29.7 °F 36.5 °F 93% 29.74 in 4.0 mi South 15.0 mph 23.0 mph 0.03 in Rain Rain
2:56 AM 38.3 °F 30.5 °F 36.5 °F 93% 29.72 in 4.0 mi South 12.7 mph 17.3 mph 0.04 in Rain Light Rain
3:17 AM 37.9 °F 29.2 °F 36.5 °F 95% 29.71 in 4.0 mi South 15.0 mph 25.3 mph 0.02 in Rain Light Rain
3:36 AM 37.9 °F 28.9 °F 36.5 °F 95% 29.70 in 4.0 mi South 16.1 mph 24.2 mph 0.03 in Rain Light Rain
3:57 AM 38.3 °F 28.7 °F 36.5 °F 93% 29.69 in 5.0 mi South 18.4 mph 23.0 mph 0.04 in Rain Light Rain
4:16 AM 38.1 °F 29.1 °F 36.5 °F 94% 29.67 in 3.0 mi South 16.1 mph 19.6 mph 0.02 in Rain Light Rain
4:36 AM 37.9 °F 29.2 °F 36.1 °F 93% 29.66 in 5.0 mi South 15.0 mph - 0.03 in Rain Light Rain
4:57 AM 37.4 °F 26.9 °F 35.4 °F 93% 29.65 in 4.0 mi South 20.7 mph 25.3 mph 0.05 in Rain Light Rain
5:16 AM 36.7 °F 27.6 °F 34.9 °F 93% 29.65 in 7.0 mi South 15.0 mph - N/A Rain Light Rain
5:37 AM 36.5 °F 27.4 °F 34.9 °F 94% 29.63 in 10.0 mi South 15.0 mph 19.6 mph N/A   Drizzle
5:56 AM 36.5 °F 29.2 °F 34.9 °F 94% 29.62 in 10.0 mi South 10.4 mph - N/A Rain Light Rain
6:50 AM 35.6 °F 29.2 °F 35.6 °F 100% 29.60 in 7.0 mi South 8.1 mph - N/A Rain Light Rain
7:50 AM 37.4 °F 30.8 °F 35.6 °F 93% 29.58 in 5.0 mi South 9.2 mph - N/A Rain Rain
8:55 AM 37.4 °F 32.1 °F 35.6 °F 93% 29.57 in 4.0 mi SSW 6.9 mph - N/A   Overcast
9:50 AM 37.4 °F 32.1 °F 37.4 °F 100% 29.56 in 14.0 mi WSW 6.9 mph - N/A   Overcast
10:50 AM 39.2 °F 33.0 °F 35.6 °F 87% 29.57 in 5.0 mi West 9.2 mph - N/A   Overcast
11:55 AM 37.4 °F 29.3 °F 35.6 °F 93% 29.58 in 5.0 mi West 12.7 mph 20.7 mph N/A   Overcast
12:50 PM 37.4 °F 29.3 °F 35.6 °F 93% 29.58 in 10.0 mi West 12.7 mph 19.6 mph N/A   Overcast
1:50 PM 37.4 °F 27.8 °F 33.8 °F 87% 29.59 in 7.0 mi West 17.3 mph 28.8 mph N/A   Overcast
2:50 PM 37.4 °F 27.5 °F 33.8 °F 87% 29.61 in 10.0 mi West 18.4 mph 25.3 mph N/A   Overcast
3:50 PM 37.4 °F 27.5 °F 32.0 °F 81% 29.63 in 10.0 mi West 18.4 mph 25.3 mph N/A   Overcast
4:55 PM 37.4 °F 28.2 °F 32.0 °F 81% 29.65 in 10.0 mi West 16.1 mph 23.0 mph N/A   Overcast
5:55 PM 37.4 °F 28.9 °F 32.0 °F 81% 29.67 in 10.0 mi West 13.8 mph 23.0 mph N/A   Overcast
6:50 PM 37.4 °F 27.8 °F 32.0 °F 81% 29.69 in 10.0 mi West 17.3 mph 27.6 mph N/A   Overcast
7:50 PM 35.6 °F 24.5 °F 32.0 °F 87% 29.70 in 10.0 mi West 20.7 mph 28.8 mph N/A   Mostly Cloudy
8:55 PM 35.6 °F 25.9 °F 32.0 °F 87% 29.72 in 10.0 mi South 16.1 mph 26.5 mph N/A   Scattered Clouds
10:16 PM 35.2 °F 26.6 °F 32.7 °F 91% 29.75 in 10.0 mi West 12.7 mph 18.4 mph N/A   Overcast
10:36 PM 35.6 °F 27.5 °F 32.7 °F 89% 29.76 in 10.0 mi West 11.5 mph 18.4 mph N/A   Overcast
10:57 PM 35.6 °F 28.0 °F 32.4 °F 88% 29.76 in 10.0 mi WNW 10.4 mph 17.3 mph N/A   Overcast
11:16 PM 36.0 °F 27.1 °F 32.0 °F 86% 29.77 in 10.0 mi WNW 13.8 mph 21.9 mph N/A   Overcast
11:36 PM 36.1 °F 26.9 °F 32.2 °F 86% 29.77 in 10.0 mi WNW 15.0 mph 20.7 mph N/A   Overcast
11:57 PM 36.0 °F 26.7 °F 32.2 °F 86% 29.77 in 10.0 mi WNW 15.0 mph 20.7 mph N/A   Overcast